• Join FlightAware (Why Join?)
  • Login
  • US Flag 
02:29PM EST


 

Airport Tracker/Info


-or-


 

Live Flight TrackerFlight Track Log ✈ ASQ5080 ✈ 31-Mar-2014 ✈ KBNA - KDTW

Flight Track Log - Related Links

Times and Time Zones

All times are in EDT time to prevent confusion due to time zone crossing. See the ASQ5080 flight status page for this flight to view local times or setup timezone preferences in your user account.

Time Position Orientation Groundspeed Altitude Reporting Facility
EDT Latitude Longitude Course Direction KTS MPH feet Rate Location/Type
08:31PM 36.1167 -86.6833 270° West 138 159 1,400  Level Nashville TRACON
08:32PM 36.1167 -86.7500 262° West 236 272 4,200 2,318 Climbing Nashville TRACON
08:33PM 36.1833 -86.7500 360° North 300 345 6,500 2,847 Climbing Nashville TRACON
08:35PM 36.2897 -86.7467 North 294 338 10,700 2,400 Climbing Memphis Center
08:36PM 36.3831 -86.7422 North 342 394 12,300 1,935 Climbing Memphis Center
08:37PM 36.4844 -86.7383 North 361 415 14,700 2,244 Climbing Memphis Center
08:38PM 36.5908 -86.7333 North 372 428 16,900 2,000 Climbing Memphis Center
08:39PM 36.7014 -86.7217 North 390 449 18,800 2,049 Climbing Memphis Center
08:40PM 36.8344 -86.7072 North 403 464 21,100 2,098 Climbing Memphis Center
08:41PM 36.9522 -86.6939 North 415 478 23,100 1,742 Climbing Memphis Center
08:42PM 37.0706 -86.6817 North 418 481 24,700 1,463 Climbing Memphis Center
08:43PM 37.1914 -86.6664 North 425 489 26,100 1,230 Climbing Indianapolis Center
08:44PM 37.3153 -86.6536 North 437 503 27,200 1,024 Climbing Indianapolis Center
08:45PM 37.4408 -86.6183 13° North 454 522 28,200 878 Climbing Indianapolis Center
08:46PM 37.5544 -86.5736 17° North 464 534 29,000 390 Climbing Indianapolis Center
08:47PM 37.6961 -86.5194 17° North 476 548 29,000  Level Indianapolis Center
08:48PM 37.8394 -86.4633 17° North 488 562 29,000  Level Indianapolis Center
08:49PM 37.9725 -86.4117 17° North 497 572 29,000  Level Indianapolis Center
08:50PM 38.1036 -86.3614 17° North 497 572 29,000  Level Indianapolis Center
08:51PM 38.2342 -86.3089 18° North 496 571 29,000  Level Indianapolis Center
08:52PM 38.3656 -86.2583 17° North 496 571 29,000  Level Indianapolis Center
08:53PM 38.4947 -86.2078 17° North 493 567 29,000  Level Indianapolis Center
08:54PM 38.6506 -86.1458 17° North 492 566 29,000  Level Indianapolis Center
08:55PM 38.7794 -86.0950 17° North 488 562 29,000  Level Indianapolis Center
08:56PM 38.8969 -86.0475 17° North 487 560 29,000  Level Indianapolis Center
08:57PM 39.0247 -85.9958 17° North 487 560 29,000  Level Indianapolis Center
08:58PM 39.1531 -85.9442 17° North 487 560 29,000  Level Indianapolis Center
08:59PM 39.3075 -85.8828 17° North 487 560 29,000 -146 Level Indianapolis Center
09:00PM 39.4350 -85.8297 18° North 487 560 28,700 -634 Descending Indianapolis Center
09:01PM 39.5619 -85.7786 17° North 486 559 27,700 -984 Descending Indianapolis Center
09:02PM 39.6875 -85.7267 18° North 483 556 26,700 -976 Descending Indianapolis Center
09:03PM 39.8147 -85.6753 17° North 483 556 25,700 -829 Descending Indianapolis Center
09:04PM 39.9433 -85.6225 17° North 484 557 25,000 -341 Descending Indianapolis Center
09:05PM 40.1000 -85.5578 18° North 491 565 25,000  Level Indianapolis Center
09:06PM 40.2319 -85.5025 18° North 496 571 25,000  Level Indianapolis Center
09:08PM 40.3647 -85.4478 17° North 498 573 25,000 -341 Level Indianapolis Center
09:09PM 40.4964 -85.3925 18° North 498 573 24,300 -476 Descending Indianapolis Center
09:10PM 40.6286 -85.3356 18° North 500 575 24,000 -286 Descending Chicago Center
09:11PM 40.7694 -85.2728 19° North 500 575 23,700 -629 Descending Chicago Center
09:12PM 40.8992 -85.2175 18° North 497 572 22,700 -968 Descending Chicago Center
09:13PM 41.0186 -85.1442 25° Northeast 488 562 21,700 -823 Descending Chicago Center
09:14PM 41.1414 -85.0114 39° Northeast 482 555 21,000 -339 Descending Chicago Center
09:15PM 41.2453 -84.9000 39° Northeast 482 555 21,000  Level Chicago Center
09:16PM 41.3500 -84.7881 39° Northeast 483 556 21,000  Level Chicago Center
09:17PM 41.4525 -84.6769 39° Northeast 483 556 21,000 -49 Level Chicago Center
09:18PM 41.5558 -84.5656 39° Northeast 482 555 20,900 -1,403 Descending Chicago Center
09:19PM 41.6742 -84.4297 41° Northeast 472 543 18,100 -2,565 Descending Chicago Center
09:20PM 41.7294 -84.2894 62° Northeast 429 494 15,600 -2,400 Descending Chicago Center
09:21PM 41.7700 -84.1856 62° Northeast 406 467 13,900 -2,207 Descending Cleveland Center
09:21PM 41.8014 -84.1019 63° Northeast 411 473 12,400 -1,964 Descending Cleveland Center
09:22PM 41.8156 -84.0689 60° Northeast 409 471 12,100 -387 Descending Cleveland Center
09:22PM 41.8622 -83.9753 56° Northeast 406 467 12,000 -100 Descending Cleveland Center
09:23PM 41.8850 -83.9419 47° Northeast 401 461 12,000  Level Cleveland Center
09:24PM 41.9672 -83.8364 44° Northeast 409 471 12,000  Level Cleveland Center
09:24PM 42.0231 -83.7631 44° Northeast 406 467 12,000  Level Cleveland Center
09:25PM 42.0564 -83.7200 44° Northeast 408 470 12,000  Level Cleveland Center
09:25PM 42.1208 -83.6367 44° Northeast 406 467 12,000  Level Cleveland Center
09:26PM 42.1383 -83.6139 44° Northeast 407 468 12,000  Level Cleveland Center
09:27PM 42.1889 -83.5486 44° Northeast 390 449 12,000  Level Cleveland Center
09:27PM 42.2061 -83.5250 45° Northeast 307 353 12,000 -1,279 Level Cleveland Center
09:28PM 42.2722 -83.4819 26° Northeast 310 357 10,700 -1,574 Descending Cleveland Center
09:28PM 42.2811 -83.4794 12° North 293 337 10,400 -2,129 Descending Cleveland Center
09:29PM 42.3489 -83.4403 23° Northeast 296 341 8,500 -2,300 Descending Cleveland Center
09:29PM 42.3600 -83.4342 22° Northeast 282 325 8,100 -2,806 Descending Cleveland Center
09:30PM 42.4156 -83.4042 22° Northeast 265 305 5,600 -3,246 Descending Cleveland Center
09:30PM 42.4242 -83.3922 46° Northeast 251 289 4,800 -1,574 Descending Cleveland Center
09:31PM 42.4142 -83.3306 102° East 229 264 4,000 -787 Descending Cleveland Center
09:31PM 42.4042 -83.3244 156° South 174 200 4,000 -97 Level Cleveland Center
09:32PM 42.3656 -83.2944 150° Southeast 202 232 3,900 -300 Descending Cleveland Center
09:32PM 42.3544 -83.2919 171° South 195 224 3,700 -1,343 Descending Cleveland Center
09:33PM 42.3028 -83.3103 195° South 187 215 2,400 -1,026 Descending Cleveland Center
09:34PM 42.2722 -83.3333 209° Southwest 174 200 1,700 -787 Descending Cleveland Center
09:34PM 42.2647 -83.3386 208° Southwest 118 136 1,600 -590 Descending Cleveland Center
09:35PM 42.2428 -83.3536 207° Southwest 136 157 1,100 -700 Descending Cleveland Center
09:35PM 42.2339 -83.3597 207° Southwest 135 155 900 -290 Descending Cleveland Center
09:36PM 42.2122 -83.3775 211° Southwest 134 154 800 -103 Descending Cleveland Center